contact:dominique.lefevre@mio.osupytheas.fr, maurice.libes@osupytheas.fr, didier.mallarino@osupytheas.fr
Project:EMSO http://www.emso-fr.org/EMSO-France
Depth: 2436.0 m
Title:EMSO Ligure Ouest : Data MII capteur MICROCAT
DateTime_Computer,Latitude,Longitude,Temperature,Conductivity,Pressure,DateTime_Instrument
DateTime_Computer,Latitude,Longitude,degC,S m-1,dbar,DateTime_Instrument
2022-02-12T00:02:33Z,42.805,6.029,13.2997,4.60026,2470.446,2022-2-12T02:04:06Z
2022-02-12T00:05:36Z,42.805,6.029,13.3003,4.60026,2470.46,2022-2-12T02:07:09Z
2022-02-12T00:08:39Z,42.805,6.029,13.2996,4.60027,2470.474,2022-2-12T02:10:12Z
2022-02-12T00:11:42Z,42.805,6.029,13.3002,4.60027,2470.45,2022-2-12T02:13:15Z
2022-02-12T00:14:45Z,42.805,6.029,13.3001,4.60028,2470.446,2022-2-12T02:16:18Z
2022-02-12T00:17:48Z,42.805,6.029,13.3002,4.60028,2470.437,2022-2-12T02:19:22Z
2022-02-12T00:20:51Z,42.805,6.029,13.3003,4.60028,2470.483,2022-2-12T02:22:25Z
2022-02-12T00:23:55Z,42.805,6.029,13.2998,4.60029,2470.46,2022-2-12T02:25:28Z
2022-02-12T00:26:58Z,42.805,6.029,13.3002,4.60029,2470.474,2022-2-12T02:28:31Z
2022-02-12T00:30:01Z,42.805,6.029,13.3001,4.60029,2470.46,2022-2-12T02:31:34Z
2022-02-12T00:33:04Z,42.805,6.029,13.3002,4.60029,2470.437,2022-2-12T02:34:37Z
2022-02-12T00:36:07Z,42.805,6.029,13.3002,4.60029,2470.46,2022-2-12T02:37:40Z
2022-02-12T00:39:10Z,42.805,6.029,13.3006,4.60031,2470.46,2022-2-12T02:40:43Z
2022-02-12T00:42:13Z,42.805,6.029,13.3002,4.60029,2470.46,2022-2-12T02:43:47Z
2022-02-12T00:45:16Z,42.805,6.029,13.3004,4.60029,2470.474,2022-2-12T02:46:50Z
2022-02-12T00:48:20Z,42.805,6.029,13.3001,4.60031,2470.413,2022-2-12T02:49:53Z
2022-02-12T00:51:23Z,42.805,6.029,13.3002,4.60031,2470.474,2022-2-12T02:52:56Z
2022-02-12T00:54:26Z,42.805,6.029,13.3007,4.60031,2470.437,2022-2-12T02:55:59Z
2022-02-12T00:57:29Z,42.805,6.029,13.3004,4.60032,2470.46,2022-2-12T02:59:02Z
2022-02-12T01:00:32Z,42.805,6.029,13.3003,4.60031,2470.46,2022-2-12T03:02:05Z
2022-02-12T01:03:35Z,42.805,6.029,13.3005,4.60031,2470.46,2022-2-12T03:05:08Z
2022-02-12T01:06:38Z,42.805,6.029,13.3006,4.60031,2470.474,2022-2-12T03:08:12Z
2022-02-12T01:09:41Z,42.805,6.029,13.2999,4.60031,2470.45,2022-2-12T03:11:15Z
2022-02-12T01:12:44Z,42.805,6.029,13.3004,4.60031,2470.474,2022-2-12T03:14:18Z
2022-02-12T01:15:48Z,42.805,6.029,13.3002,4.60030,2470.483,2022-2-12T03:17:21Z
2022-02-12T01:18:51Z,42.805,6.029,13.3003,4.60030,2470.474,2022-2-12T03:20:24Z
2022-02-12T01:21:54Z,42.805,6.029,13.3000,4.60029,2470.483,2022-2-12T03:23:27Z
2022-02-12T01:24:57Z,42.805,6.029,13.3000,4.60029,2470.53,2022-2-12T03:26:30Z
2022-02-12T01:28:00Z,42.805,6.029,13.3002,4.60029,2470.46,2022-2-12T03:29:33Z
2022-02-12T01:31:03Z,42.805,6.029,13.3002,4.60030,2470.497,2022-2-12T03:32:37Z
2022-02-12T01:34:06Z,42.805,6.029,13.3004,4.60029,2470.483,2022-2-12T03:35:40Z
2022-02-12T01:37:10Z,42.805,6.029,13.3003,4.60029,2470.483,2022-2-12T03:38:43Z
2022-02-12T01:40:13Z,42.805,6.029,13.3000,4.60029,2470.46,2022-2-12T03:41:46Z
2022-02-12T01:43:16Z,42.805,6.029,13.3003,4.60029,2470.46,2022-2-12T03:44:49Z
2022-02-12T01:46:19Z,42.805,6.029,13.3003,4.60029,2470.483,2022-2-12T03:47:52Z
2022-02-12T01:49:22Z,42.805,6.029,13.3004,4.60031,2470.483,2022-2-12T03:50:55Z
2022-02-12T01:52:25Z,42.805,6.029,13.3004,4.60029,2470.483,2022-2-12T03:53:58Z
2022-02-12T01:55:28Z,42.805,6.029,13.3002,4.60029,2470.483,2022-2-12T03:57:02Z
2022-02-12T01:58:31Z,42.805,6.029,13.3000,4.60028,2470.52,2022-2-12T04:00:05Z
2022-02-12T02:01:34Z,42.805,6.029,13.2999,4.60028,2470.483,2022-2-12T04:03:08Z
2022-02-12T02:04:38Z,42.805,6.029,13.3000,4.60026,2470.544,2022-2-12T04:06:11Z
2022-02-12T02:07:41Z,42.805,6.029,13.2999,4.60027,2470.497,2022-2-12T04:09:14Z
2022-02-12T02:10:44Z,42.805,6.029,13.2998,4.60026,2470.507,2022-2-12T04:12:17Z
2022-02-12T02:13:47Z,42.805,6.029,13.3000,4.60026,2470.483,2022-2-12T04:15:20Z
2022-02-12T02:16:50Z,42.805,6.029,13.3001,4.60026,2470.483,2022-2-12T04:18:23Z
2022-02-12T02:19:53Z,42.805,6.029,13.3002,4.60028,2470.52,2022-2-12T04:21:27Z
2022-02-12T02:22:56Z,42.805,6.029,13.2997,4.60026,2470.52,2022-2-12T04:24:30Z
2022-02-12T02:25:59Z,42.805,6.029,13.3002,4.60026,2470.53,2022-2-12T04:27:33Z
2022-02-12T02:29:03Z,42.805,6.029,13.3002,4.60026,2470.497,2022-2-12T04:30:36Z
2022-02-12T02:32:06Z,42.805,6.029,13.3000,4.60026,2470.497,2022-2-12T04:33:39Z
2022-02-12T02:35:09Z,42.805,6.029,13.2999,4.60025,2470.52,2022-2-12T04:36:42Z
2022-02-12T02:38:12Z,42.805,6.029,13.3002,4.60025,2470.507,2022-2-12T04:39:45Z
2022-02-12T02:41:15Z,42.805,6.029,13.2999,4.60025,2470.544,2022-2-12T04:42:48Z
2022-02-12T02:44:18Z,42.805,6.029,13.2997,4.60025,2470.497,2022-2-12T04:45:51Z
2022-02-12T02:47:21Z,42.805,6.029,13.2999,4.60027,2470.544,2022-2-12T04:48:55Z
2022-02-12T02:50:24Z,42.805,6.029,13.2997,4.60025,2470.507,2022-2-12T04:51:58Z
2022-02-12T02:53:28Z,42.805,6.029,13.2998,4.60024,2470.553,2022-2-12T04:55:01Z
2022-02-12T02:56:31Z,42.805,6.029,13.2999,4.60025,2470.544,2022-2-12T04:58:04Z
2022-02-12T02:59:34Z,42.805,6.029,13.2999,4.60025,2470.53,2022-2-12T05:01:07Z
2022-02-12T03:02:37Z,42.805,6.029,13.2998,4.60026,2470.53,2022-2-12T05:04:10Z
2022-02-12T03:05:40Z,42.805,6.029,13.2996,4.60026,2470.553,2022-2-12T05:07:13Z
2022-02-12T03:08:43Z,42.805,6.029,13.3004,4.60024,2470.53,2022-2-12T05:10:16Z
2022-02-12T03:11:46Z,42.805,6.029,13.3002,4.60024,2470.52,2022-2-12T05:13:20Z
2022-02-12T03:14:49Z,42.805,6.029,13.2995,4.60024,2470.567,2022-2-12T05:16:23Z
2022-02-12T03:17:53Z,42.805,6.029,13.3001,4.60027,2470.507,2022-2-12T05:19:26Z
2022-02-12T03:20:56Z,42.805,6.029,13.2997,4.60024,2470.53,2022-2-12T05:22:29Z
2022-02-12T03:23:59Z,42.805,6.029,13.2999,4.60026,2470.553,2022-2-12T05:25:32Z
2022-02-12T03:27:02Z,42.805,6.029,13.2998,4.60024,2470.553,2022-2-12T05:28:35Z
2022-02-12T03:30:05Z,42.805,6.029,13.2998,4.60024,2470.577,2022-2-12T05:31:38Z
2022-02-12T03:33:08Z,42.805,6.029,13.2997,4.60024,2470.577,2022-2-12T05:34:41Z
2022-02-12T03:36:11Z,42.805,6.029,13.2998,4.60025,2470.553,2022-2-12T05:37:45Z
2022-02-12T03:39:14Z,42.805,6.029,13.3002,4.60025,2470.553,2022-2-12T05:40:48Z
2022-02-12T03:42:18Z,42.805,6.029,13.3000,4.60024,2470.6,2022-2-12T05:43:51Z
2022-02-12T03:45:21Z,42.805,6.029,13.2998,4.60024,2470.53,2022-2-12T05:46:54Z
2022-02-12T03:48:24Z,42.805,6.029,13.2996,4.60024,2470.577,2022-2-12T05:49:57Z
2022-02-12T03:51:27Z,42.805,6.029,13.2995,4.60025,2470.553,2022-2-12T05:53:00Z
2022-02-12T03:54:30Z,42.805,6.029,13.3000,4.60024,2470.577,2022-2-12T05:56:03Z
2022-02-12T03:57:33Z,42.805,6.029,13.3001,4.60024,2470.577,2022-2-12T05:59:06Z
2022-02-12T04:00:36Z,42.805,6.029,13.3000,4.60024,2470.577,2022-2-12T06:02:10Z
2022-02-12T04:03:39Z,42.805,6.029,13.3003,4.60025,2470.553,2022-2-12T06:05:13Z
2022-02-12T04:06:42Z,42.805,6.029,13.3004,4.60024,2470.567,2022-2-12T06:08:16Z
2022-02-12T04:09:46Z,42.805,6.029,13.3000,4.60024,2470.553,2022-2-12T06:11:19Z
2022-02-12T04:12:49Z,42.805,6.029,13.2998,4.60024,2470.553,2022-2-12T06:14:22Z
2022-02-12T04:15:52Z,42.805,6.029,13.3000,4.60025,2470.553,2022-2-12T06:17:25Z
2022-02-12T04:18:55Z,42.805,6.029,13.2996,4.60025,2470.591,2022-2-12T06:20:28Z
2022-02-12T04:21:58Z,42.805,6.029,13.3000,4.60025,2470.577,2022-2-12T06:23:31Z
2022-02-12T04:25:01Z,42.805,6.029,13.2998,4.60025,2470.591,2022-2-12T06:26:35Z
2022-02-12T04:28:04Z,42.805,6.029,13.2997,4.60024,2470.553,2022-2-12T06:29:38Z
2022-02-12T04:31:07Z,42.805,6.029,13.3000,4.60025,2470.553,2022-2-12T06:32:41Z
2022-02-12T04:34:11Z,42.805,6.029,13.2998,4.60024,2470.577,2022-2-12T06:35:44Z
2022-02-12T04:37:14Z,42.805,6.029,13.2998,4.60024,2470.553,2022-2-12T06:38:47Z
2022-02-12T04:40:17Z,42.805,6.029,13.2996,4.60025,2470.591,2022-2-12T06:41:50Z
2022-02-12T04:43:20Z,42.805,6.029,13.2999,4.60024,2470.53,2022-2-12T06:44:53Z
2022-02-12T04:46:23Z,42.805,6.029,13.2999,4.60025,2470.577,2022-2-12T06:47:56Z
2022-02-12T04:49:26Z,42.805,6.029,13.3005,4.60024,2470.553,2022-2-12T06:51:00Z
2022-02-12T04:52:29Z,42.805,6.029,13.3002,4.60025,2470.591,2022-2-12T06:54:03Z
2022-02-12T04:55:32Z,42.805,6.029,13.2998,4.60025,2470.567,2022-2-12T06:57:06Z
2022-02-12T04:58:36Z,42.805,6.029,13.3001,4.60026,2470.577,2022-2-12T07:00:09Z
2022-02-12T05:01:39Z,42.805,6.029,13.3003,4.60026,2470.553,2022-2-12T07:03:12Z
2022-02-12T05:04:42Z,42.805,6.029,13.3000,4.60024,2470.591,2022-2-12T07:06:15Z
2022-02-12T05:07:45Z,42.805,6.029,13.3001,4.60024,2470.567,2022-2-12T07:09:18Z
2022-02-12T05:10:48Z,42.805,6.029,13.2999,4.60024,2470.577,2022-2-12T07:12:21Z
2022-02-12T05:13:51Z,42.805,6.029,13.3000,4.60024,2470.577,2022-2-12T07:15:24Z
2022-02-12T05:16:54Z,42.805,6.029,13.3000,4.60025,2470.563,2022-2-12T07:18:28Z
2022-02-12T05:19:57Z,42.805,6.029,13.2997,4.60024,2470.591,2022-2-12T07:21:31Z
2022-02-12T05:23:01Z,42.805,6.029,13.2999,4.60024,2470.591,2022-2-12T07:24:34Z
2022-02-12T05:26:04Z,42.805,6.029,13.2995,4.60025,2470.577,2022-2-12T07:27:37Z
2022-02-12T05:29:07Z,42.805,6.029,13.2998,4.60027,2470.577,2022-2-12T07:30:40Z
2022-02-12T05:32:10Z,42.805,6.029,13.2997,4.60026,2470.577,2022-2-12T07:33:43Z
2022-02-12T05:35:13Z,42.805,6.029,13.2997,4.60024,2470.577,2022-2-12T07:36:46Z
2022-02-12T05:38:16Z,42.805,6.029,13.2999,4.60025,2470.6,2022-2-12T07:39:49Z
2022-02-12T05:41:19Z,42.805,6.029,13.3000,4.60024,2470.567,2022-2-12T07:42:53Z
2022-02-12T05:44:22Z,42.805,6.029,13.2996,4.60026,2470.591,2022-2-12T07:45:56Z
2022-02-12T05:47:26Z,42.805,6.029,13.3000,4.60025,2470.591,2022-2-12T07:48:59Z
2022-02-12T05:50:29Z,42.805,6.029,13.3000,4.60024,2470.591,2022-2-12T07:52:02Z
2022-02-12T05:53:32Z,42.805,6.029,13.2997,4.60024,2470.567,2022-2-12T07:55:05Z
2022-02-12T05:56:35Z,42.805,6.029,13.2995,4.60023,2470.577,2022-2-12T07:58:08Z
2022-02-12T05:59:38Z,42.805,6.029,13.2995,4.60023,2470.6,2022-2-12T08:01:11Z
2022-02-12T06:02:41Z,42.805,6.029,13.2995,4.60023,2470.6,2022-2-12T08:04:14Z
2022-02-12T06:05:44Z,42.805,6.029,13.2996,4.60023,2470.577,2022-2-12T08:07:18Z
2022-02-12T06:08:47Z,42.805,6.029,13.2996,4.60023,2470.637,2022-2-12T08:10:21Z
2022-02-12T06:11:50Z,42.805,6.029,13.2999,4.60023,2470.553,2022-2-12T08:13:24Z
2022-02-12T06:14:54Z,42.805,6.029,13.2998,4.60023,2470.553,2022-2-12T08:16:27Z
2022-02-12T06:17:57Z,42.805,6.029,13.2996,4.60024,2470.577,2022-2-12T08:19:30Z
2022-02-12T06:21:00Z,42.805,6.029,13.2999,4.60024,2470.614,2022-2-12T08:22:33Z
2022-02-12T06:24:03Z,42.805,6.029,13.3002,4.60023,2470.6,2022-2-12T08:25:36Z
2022-02-12T06:27:06Z,42.805,6.029,13.2996,4.60023,2470.6,2022-2-12T08:28:39Z
2022-02-12T06:30:09Z,42.805,6.029,13.2995,4.60023,2470.577,2022-2-12T08:31:43Z
2022-02-12T06:33:12Z,42.805,6.029,13.2996,4.60024,2470.586,2022-2-12T08:34:46Z
2022-02-12T06:36:15Z,42.805,6.029,13.2998,4.60023,2470.6,2022-2-12T08:37:49Z
2022-02-12T06:39:19Z,42.805,6.029,13.2996,4.60025,2470.577,2022-2-12T08:40:52Z
2022-02-12T06:42:22Z,42.805,6.029,13.2995,4.60024,2470.6,2022-2-12T08:43:55Z
2022-02-12T06:45:25Z,42.805,6.029,13.2998,4.60025,2470.553,2022-2-12T08:46:58Z
2022-02-12T06:48:28Z,42.805,6.029,13.3002,4.60023,2470.614,2022-2-12T08:50:01Z
2022-02-12T06:51:31Z,42.805,6.029,13.2993,4.60024,2470.577,2022-2-12T08:53:04Z
2022-02-12T06:54:34Z,42.805,6.029,13.2997,4.60024,2470.577,2022-2-12T08:56:08Z
2022-02-12T06:57:37Z,42.805,6.029,13.2996,4.60023,2470.591,2022-2-12T08:59:11Z
2022-02-12T07:00:40Z,42.805,6.029,13.2996,4.60022,2470.577,2022-2-12T09:02:14Z
2022-02-12T07:03:44Z,42.805,6.029,13.2996,4.60024,2470.591,2022-2-12T09:05:17Z
2022-02-12T07:06:47Z,42.805,6.029,13.2998,4.60023,2470.614,2022-2-12T09:08:20Z
2022-02-12T07:09:50Z,42.805,6.029,13.2999,4.60024,2470.591,2022-2-12T09:11:23Z
2022-02-12T07:12:53Z,42.805,6.029,13.2998,4.60024,2470.6,2022-2-12T09:14:26Z
2022-02-12T07:15:56Z,42.805,6.029,13.2996,4.60024,2470.591,2022-2-12T09:17:29Z
2022-02-12T07:18:59Z,42.805,6.029,13.2999,4.60026,2470.577,2022-2-12T09:20:32Z
2022-02-12T07:22:02Z,42.805,6.029,13.3000,4.60024,2470.591,2022-2-12T09:23:36Z
2022-02-12T07:25:05Z,42.805,6.029,13.2993,4.60026,2470.6,2022-2-12T09:26:39Z
2022-02-12T07:28:09Z,42.805,6.029,13.2998,4.60022,2470.6,2022-2-12T09:29:42Z
2022-02-12T07:31:12Z,42.805,6.029,13.2996,4.60023,2470.567,2022-2-12T09:32:45Z
2022-02-12T07:34:15Z,42.805,6.029,13.2997,4.60023,2470.591,2022-2-12T09:35:48Z
2022-02-12T07:37:18Z,42.805,6.029,13.2999,4.60022,2470.591,2022-2-12T09:38:51Z
2022-02-12T07:40:21Z,42.805,6.029,13.2998,4.60024,2470.614,2022-2-12T09:41:54Z
2022-02-12T07:43:24Z,42.805,6.029,13.2996,4.60023,2470.6,2022-2-12T09:44:57Z
2022-02-12T07:46:27Z,42.805,6.029,13.2995,4.60023,2470.577,2022-2-12T09:48:01Z
2022-02-12T07:49:30Z,42.805,6.029,13.2996,4.60022,2470.577,2022-2-12T09:51:04Z
2022-02-12T07:52:34Z,42.805,6.029,13.2998,4.60022,2470.553,2022-2-12T09:54:07Z
2022-02-12T07:55:37Z,42.805,6.029,13.2994,4.60024,2470.567,2022-2-12T09:57:10Z
2022-02-12T07:58:40Z,42.805,6.029,13.2996,4.60022,2470.553,2022-2-12T10:00:13Z
2022-02-12T08:01:43Z,42.805,6.029,13.2997,4.60024,2470.567,2022-2-12T10:03:16Z
2022-02-12T08:04:46Z,42.805,6.029,13.2995,4.60024,2470.6,2022-2-12T10:06:19Z
2022-02-12T08:07:49Z,42.805,6.029,13.2990,4.60024,2470.53,2022-2-12T10:09:22Z
2022-02-12T08:10:52Z,42.805,6.029,13.2994,4.60022,2470.577,2022-2-12T10:12:26Z
2022-02-12T08:13:55Z,42.805,6.029,13.3001,4.60023,2470.553,2022-2-12T10:15:29Z
2022-02-12T08:16:59Z,42.805,6.029,13.2996,4.60025,2470.567,2022-2-12T10:18:32Z
2022-02-12T08:20:02Z,42.805,6.029,13.3002,4.60022,2470.553,2022-2-12T10:21:35Z
2022-02-12T08:23:05Z,42.805,6.029,13.2996,4.60024,2470.553,2022-2-12T10:24:38Z
2022-02-12T08:26:08Z,42.805,6.029,13.2998,4.60024,2470.567,2022-2-12T10:27:41Z
2022-02-12T08:29:11Z,42.805,6.029,13.2998,4.60023,2470.591,2022-2-12T10:30:44Z
2022-02-12T08:32:14Z,42.805,6.029,13.2998,4.60024,2470.567,2022-2-12T10:33:48Z
2022-02-12T08:35:17Z,42.805,6.029,13.2998,4.60022,2470.567,2022-2-12T10:36:51Z
2022-02-12T08:38:20Z,42.805,6.029,13.2997,4.60023,2470.567,2022-2-12T10:39:54Z
2022-02-12T08:41:24Z,42.805,6.029,13.2995,4.60022,2470.553,2022-2-12T10:42:57Z
2022-02-12T08:44:27Z,42.805,6.029,13.2994,4.60023,2470.553,2022-2-12T10:46:00Z
2022-02-12T08:47:30Z,42.805,6.029,13.2995,4.60023,2470.553,2022-2-12T10:49:03Z
2022-02-12T08:50:33Z,42.805,6.029,13.2998,4.60023,2470.591,2022-2-12T10:52:06Z
2022-02-12T08:53:36Z,42.805,6.029,13.2995,4.60023,2470.567,2022-2-12T10:55:09Z
2022-02-12T08:56:39Z,42.805,6.029,13.2996,4.60024,2470.553,2022-2-12T10:58:13Z
2022-02-12T08:59:42Z,42.805,6.029,13.2995,4.60022,2470.53,2022-2-12T11:01:16Z
2022-02-12T09:02:45Z,42.805,6.029,13.2997,4.60022,2470.591,2022-2-12T11:04:19Z
2022-02-12T09:05:49Z,42.805,6.029,13.2995,4.60022,2470.544,2022-2-12T11:07:22Z
2022-02-12T09:08:52Z,42.805,6.029,13.2997,4.60023,2470.567,2022-2-12T11:10:25Z
2022-02-12T09:11:55Z,42.805,6.029,13.2996,4.60021,2470.553,2022-2-12T11:13:28Z
2022-02-12T09:14:58Z,42.805,6.029,13.2997,4.60022,2470.553,2022-2-12T11:16:31Z
2022-02-12T09:18:01Z,42.805,6.029,13.2994,4.60022,2470.567,2022-2-12T11:19:34Z
2022-02-12T09:21:04Z,42.805,6.029,13.2998,4.60023,2470.544,2022-2-12T11:22:38Z
2022-02-12T09:24:07Z,42.805,6.029,13.2991,4.60024,2470.567,2022-2-12T11:25:41Z
2022-02-12T09:27:11Z,42.805,6.029,13.3000,4.60024,2470.567,2022-2-12T11:28:44Z
2022-02-12T09:30:14Z,42.805,6.029,13.2998,4.60021,2470.567,2022-2-12T11:31:47Z
2022-02-12T09:33:17Z,42.805,6.029,13.2995,4.60024,2470.507,2022-2-12T11:34:50Z
2022-02-12T09:36:20Z,42.805,6.029,13.2996,4.60021,2470.591,2022-2-12T11:37:53Z
2022-02-12T09:39:23Z,42.805,6.029,13.2998,4.60021,2470.567,2022-2-12T11:40:56Z
2022-02-12T09:42:26Z,42.805,6.029,13.2995,4.60023,2470.53,2022-2-12T11:43:59Z
2022-02-12T09:45:29Z,42.805,6.029,13.2996,4.60024,2470.53,2022-2-12T11:47:03Z
2022-02-12T09:48:32Z,42.805,6.029,13.2996,4.60022,2470.53,2022-2-12T11:50:06Z
2022-02-12T09:51:36Z,42.805,6.029,13.2995,4.60025,2470.553,2022-2-12T11:53:09Z
2022-02-12T09:54:39Z,42.805,6.029,13.2996,4.60023,2470.52,2022-2-12T11:56:12Z
2022-02-12T09:57:42Z,42.805,6.029,13.2999,4.60024,2470.53,2022-2-12T11:59:15Z
2022-02-12T10:00:45Z,42.805,6.029,13.2996,4.60021,2470.544,2022-2-12T12:02:18Z
2022-02-12T10:03:48Z,42.805,6.029,13.2999,4.60022,2470.53,2022-2-12T12:05:21Z
2022-02-12T10:06:51Z,42.805,6.029,13.2997,4.60022,2470.591,2022-2-12T12:08:24Z
2022-02-12T10:09:54Z,42.805,6.029,13.2994,4.60023,2470.553,2022-2-12T12:11:28Z
2022-02-12T10:12:57Z,42.805,6.029,13.2993,4.60023,2470.577,2022-2-12T12:14:31Z
2022-02-12T10:16:01Z,42.805,6.029,13.2995,4.60021,2470.53,2022-2-12T12:17:34Z
2022-02-12T10:19:04Z,42.805,6.029,13.2997,4.60021,2470.53,2022-2-12T12:20:37Z
2022-02-12T10:22:07Z,42.805,6.029,13.2993,4.60021,2470.567,2022-2-12T12:23:40Z
2022-02-12T10:25:10Z,42.805,6.029,13.2995,4.60022,2470.544,2022-2-12T12:26:43Z
2022-02-12T10:28:13Z,42.805,6.029,13.2993,4.60020,2470.507,2022-2-12T12:29:46Z
2022-02-12T10:31:16Z,42.805,6.029,13.2995,4.60021,2470.53,2022-2-12T12:32:49Z
2022-02-12T10:34:19Z,42.805,6.029,13.2995,4.60021,2470.52,2022-2-12T12:35:53Z
2022-02-12T10:37:22Z,42.805,6.029,13.2993,4.60021,2470.507,2022-2-12T12:38:56Z
2022-02-12T10:40:26Z,42.805,6.029,13.2993,4.60022,2470.553,2022-2-12T12:41:59Z
2022-02-12T10:43:29Z,42.805,6.029,13.2996,4.60023,2470.544,2022-2-12T12:45:02Z
2022-02-12T10:46:32Z,42.805,6.029,13.2998,4.60022,2470.507,2022-2-12T12:48:05Z
2022-02-12T10:49:35Z,42.805,6.029,13.2996,4.60022,2470.544,2022-2-12T12:51:08Z
2022-02-12T10:52:38Z,42.805,6.029,13.2997,4.60023,2470.47,2022-2-12T12:54:11Z
2022-02-12T10:55:41Z,42.805,6.029,13.2991,4.60021,2470.507,2022-2-12T12:57:14Z
2022-02-12T10:58:44Z,42.805,6.029,13.2994,4.60022,2470.544,2022-2-12T13:00:18Z
2022-02-12T11:01:47Z,42.805,6.029,13.2995,4.60023,2470.553,2022-2-12T13:03:21Z
2022-02-12T11:04:51Z,42.805,6.029,13.2995,4.60023,2470.507,2022-2-12T13:06:24Z
2022-02-12T11:07:54Z,42.805,6.029,13.2994,4.60021,2470.52,2022-2-12T13:09:27Z
2022-02-12T11:10:57Z,42.805,6.029,13.2997,4.60025,2470.483,2022-2-12T13:12:30Z
2022-02-12T11:14:00Z,42.805,6.029,13.2994,4.60021,2470.507,2022-2-12T13:15:33Z
2022-02-12T11:17:03Z,42.805,6.029,13.2995,4.60021,2470.544,2022-2-12T13:18:36Z
2022-02-12T11:20:06Z,42.805,6.029,13.2994,4.60022,2470.544,2022-2-12T13:21:40Z
2022-02-12T11:23:09Z,42.805,6.029,13.2994,4.60021,2470.507,2022-2-12T13:24:43Z
2022-02-12T11:26:12Z,42.805,6.029,13.2993,4.60021,2470.53,2022-2-12T13:27:46Z
2022-02-12T11:29:16Z,42.805,6.029,13.2993,4.60021,2470.483,2022-2-12T13:30:49Z
2022-02-12T11:32:19Z,42.805,6.029,13.2998,4.60021,2470.483,2022-2-12T13:33:52Z
2022-02-12T11:35:22Z,42.805,6.029,13.2996,4.60021,2470.53,2022-2-12T13:36:55Z
2022-02-12T11:38:25Z,42.805,6.029,13.2998,4.60021,2470.52,2022-2-12T13:39:58Z
2022-02-12T11:41:28Z,42.805,6.029,13.3000,4.60023,2470.483,2022-2-12T13:43:01Z
2022-02-12T11:44:31Z,42.805,6.029,13.2997,4.60023,2470.507,2022-2-12T13:46:05Z
2022-02-12T11:47:34Z,42.805,6.029,13.2991,4.60021,2470.507,2022-2-12T13:49:08Z
2022-02-12T11:50:37Z,42.805,6.029,13.2993,4.60023,2470.497,2022-2-12T13:52:11Z
2022-02-12T11:53:41Z,42.805,6.029,13.2996,4.60021,2470.483,2022-2-12T13:55:14Z
2022-02-12T11:56:44Z,42.805,6.029,13.2994,4.60021,2470.483,2022-2-12T13:58:17Z
2022-02-12T11:59:47Z,42.805,6.029,13.2994,4.60021,2470.483,2022-2-12T14:01:20Z
2022-02-12T12:02:50Z,42.805,6.029,13.2998,4.60021,2470.507,2022-2-12T14:04:23Z
2022-02-12T12:05:53Z,42.805,6.029,13.2994,4.60021,2470.483,2022-2-12T14:07:26Z
2022-02-12T12:08:56Z,42.805,6.029,13.2992,4.60021,2470.507,2022-2-12T14:10:30Z
2022-02-12T12:11:59Z,42.805,6.029,13.2992,4.60021,2470.544,2022-2-12T14:13:33Z
2022-02-12T12:15:02Z,42.805,6.029,13.2995,4.60021,2470.507,2022-2-12T14:16:36Z
2022-02-12T12:18:06Z,42.805,6.029,13.2992,4.60023,2470.544,2022-2-12T14:19:39Z
2022-02-12T12:21:09Z,42.805,6.029,13.2993,4.60021,2470.483,2022-2-12T14:22:42Z
2022-02-12T12:24:12Z,42.805,6.029,13.2997,4.60021,2470.507,2022-2-12T14:25:45Z
2022-02-12T12:27:15Z,42.805,6.029,13.2991,4.60021,2470.46,2022-2-12T14:28:48Z
2022-02-12T12:30:18Z,42.805,6.029,13.2996,4.60021,2470.52,2022-2-12T14:31:51Z
2022-02-12T12:33:21Z,42.805,6.029,13.2994,4.60022,2470.52,2022-2-12T14:34:55Z
2022-02-12T12:36:24Z,42.805,6.029,13.2997,4.60021,2470.507,2022-2-12T14:37:58Z
2022-02-12T12:39:28Z,42.805,6.029,13.2991,4.60021,2470.507,2022-2-12T14:41:01Z
2022-02-12T12:42:31Z,42.805,6.029,13.2992,4.60021,2470.507,2022-2-12T14:44:04Z
2022-02-12T12:45:34Z,42.805,6.029,13.2998,4.60021,2470.483,2022-2-12T14:47:07Z
2022-02-12T12:48:37Z,42.805,6.029,13.2993,4.60021,2470.497,2022-2-12T14:50:10Z
2022-02-12T12:51:40Z,42.805,6.029,13.2992,4.60021,2470.483,2022-2-12T14:53:13Z
2022-02-12T12:54:43Z,42.805,6.029,13.2993,4.60021,2470.474,2022-2-12T14:56:16Z
2022-02-12T12:57:46Z,42.805,6.029,13.2996,4.60021,2470.507,2022-2-12T14:59:20Z
2022-02-12T13:00:49Z,42.805,6.029,13.2991,4.60021,2470.483,2022-2-12T15:02:23Z
2022-02-12T13:03:53Z,42.805,6.029,13.2993,4.60023,2470.507,2022-2-12T15:05:26Z
2022-02-12T13:06:56Z,42.805,6.029,13.2996,4.60021,2470.507,2022-2-12T15:08:29Z
2022-02-12T13:09:59Z,42.805,6.029,13.2998,4.60021,2470.483,2022-2-12T15:11:32Z
2022-02-12T13:13:02Z,42.805,6.029,13.2999,4.60021,2470.507,2022-2-12T15:14:35Z
2022-02-12T13:16:05Z,42.805,6.029,13.2993,4.60021,2470.553,2022-2-12T15:17:38Z
2022-02-12T13:19:08Z,42.805,6.029,13.2992,4.60021,2470.474,2022-2-12T15:20:41Z
2022-02-12T13:22:11Z,42.805,6.029,13.2991,4.60023,2470.483,2022-2-12T15:23:45Z
2022-02-12T13:25:14Z,42.805,6.029,13.2995,4.60021,2470.567,2022-2-12T15:26:48Z
2022-02-12T13:28:18Z,42.805,6.029,13.2995,4.60022,2470.507,2022-2-12T15:29:51Z
2022-02-12T13:31:21Z,42.805,6.029,13.2998,4.60021,2470.53,2022-2-12T15:32:54Z
2022-02-12T13:34:24Z,42.805,6.029,13.2995,4.60021,2470.507,2022-2-12T15:35:57Z
2022-02-12T13:37:27Z,42.805,6.029,13.2993,4.60021,2470.507,2022-2-12T15:39:00Z
2022-02-12T13:40:30Z,42.805,6.029,13.2993,4.60021,2470.483,2022-2-12T15:42:03Z
2022-02-12T13:43:33Z,42.805,6.029,13.2996,4.60021,2470.53,2022-2-12T15:45:06Z
2022-02-12T13:46:36Z,42.805,6.029,13.2993,4.60021,2470.507,2022-2-12T15:48:10Z
2022-02-12T13:49:39Z,42.805,6.029,13.2992,4.60021,2470.53,2022-2-12T15:51:13Z
2022-02-12T13:52:43Z,42.805,6.029,13.2996,4.60022,2470.507,2022-2-12T15:54:16Z
2022-02-12T13:55:46Z,42.805,6.029,13.2992,4.60021,2470.483,2022-2-12T15:57:19Z
2022-02-12T13:58:49Z,42.805,6.029,13.2996,4.60021,2470.544,2022-2-12T16:00:22Z
2022-02-12T14:01:52Z,42.805,6.029,13.2997,4.60023,2470.507,2022-2-12T16:03:25Z
2022-02-12T14:04:55Z,42.805,6.029,13.2996,4.60021,2470.507,2022-2-12T16:06:28Z
2022-02-12T14:07:58Z,42.805,6.029,13.2997,4.60021,2470.497,2022-2-12T16:09:32Z
2022-02-12T14:11:01Z,42.805,6.029,13.2996,4.60021,2470.53,2022-2-12T16:12:35Z
2022-02-12T14:14:04Z,42.805,6.029,13.2995,4.60021,2470.553,2022-2-12T16:15:38Z
2022-02-12T14:17:08Z,42.805,6.029,13.2997,4.60023,2470.52,2022-2-12T16:18:41Z
2022-02-12T14:20:11Z,42.805,6.029,13.2996,4.60021,2470.507,2022-2-12T16:21:44Z
2022-02-12T14:23:14Z,42.805,6.029,13.2993,4.60022,2470.544,2022-2-12T16:24:47Z
2022-02-12T14:26:17Z,42.805,6.029,13.2994,4.60024,2470.507,2022-2-12T16:27:50Z
2022-02-12T14:29:20Z,42.805,6.029,13.2992,4.60023,2470.507,2022-2-12T16:30:53Z
2022-02-12T14:32:23Z,42.805,6.029,13.2996,4.60025,2470.497,2022-2-12T16:33:57Z
2022-02-12T14:35:26Z,42.805,6.029,13.2998,4.60023,2470.53,2022-2-12T16:37:00Z
2022-02-12T14:38:29Z,42.805,6.029,13.2997,4.60021,2470.53,2022-2-12T16:40:03Z
2022-02-12T14:41:33Z,42.805,6.029,13.2996,4.60023,2470.553,2022-2-12T16:43:06Z
2022-02-12T14:44:36Z,42.805,6.029,13.2998,4.60022,2470.507,2022-2-12T16:46:09Z
2022-02-12T14:47:39Z,42.805,6.029,13.2996,4.60022,2470.53,2022-2-12T16:49:12Z
2022-02-12T14:50:42Z,42.805,6.029,13.2997,4.60021,2470.507,2022-2-12T16:52:15Z
2022-02-12T14:53:45Z,42.805,6.029,13.2996,4.60022,2470.507,2022-2-12T16:55:18Z
2022-02-12T14:56:48Z,42.805,6.029,13.2996,4.60022,2470.544,2022-2-12T16:58:22Z
2022-02-12T14:59:51Z,42.805,6.029,13.2995,4.60023,2470.507,2022-2-12T17:01:25Z
2022-02-12T15:02:55Z,42.805,6.029,13.2996,4.60023,2470.483,2022-2-12T17:04:28Z
2022-02-12T15:05:58Z,42.805,6.029,13.2998,4.60022,2470.53,2022-2-12T17:07:31Z
2022-02-12T15:09:01Z,42.805,6.029,13.2996,4.60022,2470.507,2022-2-12T17:10:34Z
2022-02-12T15:12:04Z,42.805,6.029,13.2997,4.60023,2470.52,2022-2-12T17:13:37Z